[[{"header":{"parameterUnit":"m.s-1","parameterCategory":1,"la1":30.2991,"la2":30.254,"lo1":-89.0895,"lo2":-89.0444,"dx":0.0017,"dy":0.0017,"nx":28,"ny":28,"refTime":"2022-11-05T15:00:00:Z","depth":0,"parameterNumber":2,"parameterNumberName":"U-component_of_WINDS"},"data":[0,0,0,0,0,0,0,0,0,0,0,0,0,0,0,0,0,0,0,0,0,0,0,0,0,0,0,0,0,0,0,0,0,0,0,0,0,0,0,0,0,0,0,0,0,0,0,0,0,0,0,0,0,0,0,0,0,0,-3.0002,-3.0004,0,-3.0159,-3.0161,-3.0162,-3.0212,-3.0212,-3.0211,-3.021,-3.0372,-3.0377,-3.0382,0,0,0,0,0,0,0,0,0,0,0,0,0,-2.975,-2.9755,-3.0002,-3.0004,-3.0006,-3.0158,-3.0161,-3.0163,-3.0212,-3.0212,-3.0211,-3.021,-3.0371,-3.0377,-3.0383,0,0,0,0,0,0,0,0,0,0,0,0,0,-2.9878,-2.9756,-3.0002,-3.0049,-3.0055,-3.0158,-3.0161,-3.0163,-3.0213,-3.0211,-3.021,-3.0209,-3.0369,-3.0376,-3.0384,-3.0451,0,0,-3.0406,-3.041,0,0,0,0,0,0,0,0,-2.9871,-2.9888,-3.004,-3.0046,-3.0053,-3.0165,-3.0131,-3.026,-3.0213,-3.0153,-3.021,-3.0209,-3.0304,-3.0317,-3.0349,-3.0459,-3.0466,-3.0407,-3.0412,-3.0415,-3.0417,0,0,0,0,0,0,0,-2.9862,-2.9881,-3.0064,-3.0043,-3.005,-3.0064,-3.0081,-3.0156,-3.0233,-3.0158,-3.0162,-3.018,-3.0308,-3.0342,-3.0353,-3.0468,-3.0407,-3.0414,-3.0418,-3.0421,-3.0644,-3.0645,0,0,0,0,0,0,-2.9845,-2.9874,-3.0059,-3.0069,-2.9957,-3.0069,-3.0088,-3.013,-3.0232,-3.0247,-3.018,-3.0181,-3.0329,-3.0344,-3.0359,-3.0446,-3.0415,-3.0422,-3.0426,-3.0642,-3.0644,-3.0646,0,0,0,0,0,0,-2.9839,-2.9861,-3.0053,-2.9972,-2.9998,-3.0075,-3.0121,-3.0134,-3.0168,-3.0249,-3.0263,-3.0201,-3.0329,-3.0348,-3.0428,-3.0452,-3.0425,-3.0432,-3.0641,-3.0643,-3.0645,-3.0619,0,0,0,0,0,0,-2.9832,-2.9859,-2.9884,-2.9973,-3.0002,-3.0118,-3.0123,-3.0138,-3.018,-3.0183,-3.0272,-3.0286,-3.033,-3.0417,-3.0436,-3.0462,-3.0438,-3.0639,-3.0642,-3.0644,-3.0618,-3.062,-3.0622,0,0,0,0,0,-2.9823,-2.9871,-2.9885,-2.9907,-3.0035,-3.012,-3.0137,-3.0186,-3.0182,-3.0209,-3.0262,-3.0283,-3.0447,-3.0425,-3.0446,-3.0475,-3.0638,-3.0641,-3.0644,-3.0617,-3.062,-3.0622,0,0,0,0,0,0,-2.9784,-2.9883,-2.99,-2.9978,-3.004,-3.0128,-3.0163,-3.0186,-3.0251,-3.0251,-3.031,-3.033,-3.0405,-3.0449,-3.0422,-3.0547,-3.0543,-3.0551,-3.0515,-3.0518,-3.052,-3.0508,-3.0444,0,0,0,0,0,-2.9784,-2.9843,-2.9928,-2.9989,-3.0019,-3.0085,-3.0124,-3.0157,-3.0223,-3.025,-3.0308,-3.0373,-3.0439,-3.0481,-3.0547,-3.0625,-3.0646,-3.0656,-3.0658,-3.0659,-3.0664,-3.071,-3.0716,-3.0656,-3.0656,-3.0656,0,0,-2.9786,-2.9848,-2.9881,-2.9982,-3.0034,-3.0095,-3.0107,-3.0171,-3.0217,-3.026,-3.0338,-3.0384,-3.046,-3.054,-3.0578,-3.0578,-3.0686,-3.0663,-3.0663,-3.0668,-3.0714,-3.0719,-3.0724,-3.0658,-3.0658,-3.0658,0,0,-2.982,-2.9872,-2.9929,-2.998,-3.0058,-3.0103,-3.0117,-3.0202,-3.0233,-3.0313,-3.0347,-3.0403,-3.0516,-3.0569,-3.0611,-3.0667,-3.0689,-3.0687,-3.0696,-3.0739,-3.0744,-3.0748,-3.0769,-3.0775,-3.0692,-3.0692,-3.0692,0,-2.9812,-2.9904,-2.9955,-3.0017,-3.0061,-3.0103,-3.0162,-3.021,-3.0305,-3.0335,-3.0334,-3.0477,-3.0531,-3.0624,-3.0638,-3.0671,-3.0689,-3.0676,-3.0739,-3.0744,-3.0749,-3.0769,-3.0776,-3.0691,-3.0692,-3.0692,-3.0692,0,-2.9891,-2.9954,-2.9991,-3.0081,-3.013,-3.019,-3.0252,-3.0295,-3.0324,-3.0369,-3.045,-3.0517,-3.0597,-3.0622,-3.0651,-3.072,-3.0718,-3.0727,-3.0725,-3.0753,-3.0773,-3.0781,-3.069,-3.0691,-3.0691,-3.0691,0,0,-2.9903,-3.0022,-3.0034,-3.0076,-3.0166,-3.0217,-3.028,-3.0358,-3.0394,-3.0459,-3.0514,-3.0609,-3.0619,-3.0666,-3.0702,-3.0741,-3.0781,-3.0746,-3.0749,-3.075,-3.0862,-3.0853,-3.0861,-3.0797,-3.0799,-3.08,-3.0855,0,-2.9948,-3.006,-3.0109,-3.02,-3.026,-3.0301,-3.0356,-3.0418,-3.0462,-3.0521,-3.057,-3.0637,-3.0644,-3.0673,-3.0714,-3.0767,-3.0804,-3.0764,-3.0849,-3.0851,-3.0827,-3.0871,-3.0862,-3.0911,-3.0863,-3.0864,-3.0865,0,-3.0015,-3.008,-3.0176,-3.026,-3.0287,-3.0335,-3.0411,-3.0466,-3.0538,-3.0567,-3.0621,-3.0655,-3.0724,-3.0718,-3.0814,-3.0786,-3.0824,-3.0856,-3.0859,-3.0868,-3.0859,-3.0881,-3.0928,-3.0934,-3.0878,-3.0877,-3.0876,0,-3.0014,-3.0126,-3.0198,-3.0233,-3.0332,-3.0365,-3.0408,-3.0479,-3.0523,-3.059,-3.0619,-3.0694,-3.0734,-3.0792,-3.0846,-3.0836,-3.0938,-3.0936,-3.0965,-3.0963,-3.0983,-3.0981,-3.1036,-3.1009,-3.1009,-3.1008,-3.1008,0,-3.0059,-3.0116,-3.0199,-3.0243,-3.0309,-3.0366,-3.043,-3.0476,-3.0539,-3.0594,-3.0635,-3.0686,-3.0755,-3.0815,-3.0859,-3.0932,-3.095,-3.0977,-3.0988,-3.0973,-3.0969,-3.0998,-3.0996,-3.101,-3.101,-3.101,-3.1009,0,-3.0068,-3.0126,-3.0207,-3.0295,-3.0318,-3.0363,-3.0439,-3.0484,-3.0531,-3.06,-3.062,-3.0694,-3.0767,-3.0827,-3.0923,-3.0952,-3.1029,-3.1042,-3.1004,-3.101,-3.1036,-3.1032,-3.111,-3.1123,-3.1087,-3.1088,-3.1088,0,-3.0093,-3.0138,-3.023,-3.0269,-3.0312,-3.0375,-3.042,-3.0478,-3.0524,-3.061,-3.0645,-3.0721,-3.0785,-3.09,-3.0963,-3.1038,-3.1052,-3.1074,-3.1063,-3.1048,-3.1052,-3.1049,-3.1054,-3.1075,-3.1075,-3.1075,-3.1075,0,-3.013,-3.0156,-3.0219,-3.0292,-3.0345,-3.0405,-3.0467,-3.0498,-3.0568,-3.0617,-3.0692,-3.0741,-3.084,-3.0915,-3.0996,-3.1043,-3.1071,-3.1078,-3.1089,-3.1074,-3.105,-3.1063,-3.1007,-3.1076,-3.1076,-3.1076,-3.1076,-3.1076,-3.0148,-3.019,-3.0261,-3.033,-3.0383,-3.044,-3.0487,-3.054,-3.0603,-3.0687,-3.0718,-3.0795,-3.0868,-3.0979,-3.1026,-3.1088,-3.1091,-3.1106,-3.111,-3.1113,-3.1111,-3.1041,-3.1103,-3.1103,-3.1103,-3.1103,-3.1103,0,-3.0187,-3.0235,-3.0298,-3.0383,-3.0438,-3.0459,-3.0529,-3.0574,-3.0641,-3.0705,-3.0767,-3.0854,-3.0928,-3.0997,-3.1075,-3.1111,-3.1126,-3.1129,-3.1127,-3.1137,-3.1104,-3.1087,-3.1116,-3.1116,-3.1116,-3.1116,-3.1116,-3.1116,-3.0214,-3.0286,-3.0321,-3.0421,-3.047,-3.0544,-3.0583,-3.0636,-3.0688,-3.0783,-3.0844,-3.0888,-3.0955,-3.1038,-3.1107,-3.1126,-3.1153,-3.1152,-3.1174,-3.1142,-3.114,-3.1138,-3.1122,-3.1158,-3.1158,-3.1203,-3.1203,-3.1203]},{"header":{"parameterUnit":"m.s-1","parameterCategory":1,"la1":30.2991,"la2":30.254,"lo1":-89.0895,"lo2":-89.0444,"dx":0.0017,"dy":0.0017,"nx":28,"ny":28,"refTime":"2022-11-05T15:00:00:Z","depth":0,"parameterNumber":3,"parameterNumberName":"V-component_of_WINDS"},"data":[0,0,0,0,0,0,0,0,0,0,0,0,0,0,0,0,0,0,0,0,0,0,0,0,0,0,0,0,0,0,0,0,0,0,0,0,0,0,0,0,0,0,0,0,0,0,0,0,0,0,0,0,0,0,0,0,0,0,4.4646,4.4646,0,4.4721,4.4722,4.4723,4.4692,4.4691,4.4689,4.4687,4.4767,4.4771,4.4775,0,0,0,0,0,0,0,0,0,0,0,0,0,4.4479,4.4482,4.4645,4.4646,4.4647,4.4721,4.4722,4.4723,4.4693,4.469,4.4688,4.4686,4.4766,4.477,4.4775,0,0,0,0,0,0,0,0,0,0,0,0,0,4.4553,4.4483,4.4645,4.4641,4.4641,4.4721,4.4722,4.4724,4.4693,4.469,4.4688,4.4685,4.4764,4.477,4.4776,4.4865,0,0,4.4793,4.4796,0,0,0,0,0,0,0,0,4.4549,4.4559,4.4641,4.4641,4.4642,4.4695,4.4693,4.4771,4.4694,4.4674,4.4687,4.4684,4.4745,4.4752,4.4773,4.4869,4.4872,4.4794,4.4797,4.48,4.4801,0,0,0,0,0,0,0,4.4544,4.4556,4.4676,4.4642,4.4643,4.4637,4.4644,4.4708,4.4724,4.4675,4.4673,4.4682,4.4745,4.4767,4.4774,4.4873,4.4793,4.4799,4.4802,4.4804,4.505,4.5053,0,0,0,0,0,0,4.4538,4.4551,4.4673,4.4678,4.4588,4.4642,4.465,4.468,4.4723,4.4727,4.4685,4.4681,4.4759,4.4768,4.4777,4.4887,4.4799,4.4805,4.4808,4.5047,4.5051,4.5054,0,0,0,0,0,0,4.4534,4.4549,4.467,4.4614,4.4629,4.4648,4.4682,4.4683,4.4705,4.473,4.4733,4.4704,4.4757,4.4769,4.4844,4.4889,4.4807,4.4813,4.5043,4.5048,4.5053,4.5105,0,0,0,0,0,0,4.453,4.4548,4.458,4.4615,4.4632,4.4734,4.4684,4.4687,4.4715,4.4711,4.4749,4.4753,4.4756,4.4836,4.485,4.4895,4.4817,4.504,4.5046,4.5051,4.5099,4.5111,4.5121,0,0,0,0,0,4.4524,4.4592,4.4582,4.4597,4.4673,4.4737,4.4747,4.4748,4.4719,4.4753,4.4769,4.4751,4.4882,4.4844,4.4859,4.4907,4.5037,4.5044,4.5051,4.5095,4.5109,4.5121,0,0,0,0,0,0,4.4562,4.4596,4.4586,4.4667,4.4699,4.4731,4.4774,4.4763,4.4804,4.4799,4.48,4.4809,4.4887,4.4904,4.4861,4.4998,4.4955,4.4965,4.4983,4.4997,4.5007,4.5002,4.4822,0,0,0,0,0,4.458,4.4628,4.4655,4.4725,4.4741,4.4755,4.4783,4.4782,4.4815,4.4829,4.4851,4.4885,4.4934,4.4966,4.5012,4.5102,4.5112,4.5143,4.5154,4.5163,4.5172,4.5224,4.5239,4.5077,4.5077,4.5077,0,0,4.4618,4.4642,4.4672,4.4733,4.4758,4.4809,4.4767,4.4822,4.486,4.4838,4.491,4.4928,4.4966,4.505,4.5088,4.5067,4.5219,4.5171,4.5178,4.5183,4.5233,4.5248,4.5261,4.5082,4.5081,4.508,0,0,4.4712,4.4735,4.4796,4.4822,4.4861,4.487,4.4885,4.492,4.4931,4.5003,4.4988,4.5035,4.5118,4.5148,4.5173,4.5283,4.527,4.5298,4.5355,4.5405,4.5418,4.5429,4.5471,4.5485,4.5307,4.5308,4.5308,0,4.4754,4.4829,4.4829,4.4887,4.4915,4.4897,4.4961,4.4986,4.5038,4.5059,4.5035,4.5142,4.5167,4.5258,4.5285,4.5306,4.5325,4.5294,4.5416,4.5427,4.5438,4.5478,4.5493,4.5311,4.5311,4.531,4.531,0,4.488,4.4933,4.4978,4.5029,4.5063,4.5123,4.5134,4.5168,4.5165,4.5178,4.5254,4.5284,4.5337,4.5358,4.5355,4.5451,4.5437,4.5415,4.5372,4.5457,4.5494,4.5509,4.5316,4.5315,4.5314,4.5313,0,0,4.5,4.5052,4.5068,4.5093,4.5135,4.5177,4.5238,4.529,4.532,4.5358,4.541,4.5483,4.5464,4.5493,4.5493,4.5538,4.5626,4.551,4.5511,4.5533,4.5737,4.5754,4.5772,4.5618,4.562,4.5623,4.5734,0,4.5099,4.5204,4.5208,4.5305,4.5356,4.5341,4.5394,4.5427,4.5442,4.5488,4.5504,4.5557,4.5526,4.5544,4.5587,4.5606,4.5668,4.5598,4.5669,4.5671,4.566,4.5791,4.5809,4.5913,4.5749,4.5751,4.5753,0,4.5228,4.527,4.5373,4.5411,4.5432,4.548,4.553,4.5573,4.5612,4.562,4.5654,4.5649,4.5714,4.5669,4.576,4.5713,4.5743,4.5757,4.5761,4.5768,4.5718,4.5803,4.5945,4.5962,4.5775,4.5774,4.5772,0,4.5308,4.539,4.5463,4.5484,4.5529,4.5564,4.5585,4.5621,4.5653,4.5697,4.5718,4.5769,4.5798,4.5839,4.5849,4.5815,4.5941,4.5896,4.5951,4.5951,4.5978,4.5977,4.6129,4.5995,4.5995,4.5995,4.5995,0,4.5419,4.5483,4.5499,4.5544,4.5616,4.5621,4.5693,4.5711,4.5744,4.5794,4.5784,4.5832,4.5841,4.5892,4.59,4.5976,4.5988,4.5998,4.6,4.6,4.5999,4.602,4.6013,4.5999,4.5998,4.5997,4.5997,0,4.552,4.5533,4.5612,4.5649,4.5661,4.5712,4.5745,4.579,4.5804,4.5867,4.5883,4.5905,4.5964,4.5978,4.6048,4.6054,4.6145,4.6139,4.6132,4.6132,4.6187,4.6182,4.6358,4.6383,4.6232,4.6233,4.6235,0,4.5591,4.564,4.5683,4.5716,4.5738,4.579,4.5824,4.5831,4.5866,4.5916,4.5955,4.6013,4.6059,4.6155,4.6179,4.6233,4.623,4.6288,4.6238,4.6237,4.6233,4.6231,4.6237,4.6298,4.6299,4.6301,4.6302,0,4.5716,4.572,4.5768,4.5819,4.5859,4.59,4.5938,4.5966,4.5979,4.602,4.608,4.6116,4.6189,4.6248,4.6303,4.6327,4.6318,4.6317,4.6333,4.6334,4.6329,4.6335,4.6159,4.6313,4.6312,4.6311,4.6311,4.631,4.5805,4.5849,4.5887,4.5941,4.5972,4.6009,4.6053,4.6073,4.6123,4.6182,4.6184,4.6251,4.6291,4.6365,4.6392,4.6446,4.6428,4.6451,4.6457,4.6463,4.6469,4.632,4.6456,4.6455,4.6455,4.6455,4.6455,0,4.5931,4.5956,4.6005,4.6061,4.6104,4.6091,4.6134,4.6172,4.623,4.6269,4.6315,4.6386,4.6444,4.6473,4.6531,4.6569,4.6566,4.6584,4.6582,4.6588,4.648,4.6461,4.6585,4.6585,4.6585,4.6585,4.6585,4.6585,4.6002,4.6077,4.6087,4.6177,4.6201,4.6266,4.6292,4.6328,4.6359,4.6438,4.6486,4.6504,4.654,4.6601,4.6654,4.6662,4.6684,4.6705,4.671,4.6609,4.6595,4.6583,4.6565,4.6709,4.6709,4.6814,4.6815,4.6816]}]]